www.pogodaiklimat.ru

Погода и климат >> Архив погоды >> Австралия >> Новый Южный Уэльс >> Дениликин


ПОГОДА в Дениликине

  • Прогноз погоды в Дениликине
  • Монитор погоды в Дениликине

АРХИВ ПОГОДЫ в Дениликине

Время (UTC), дата Ветер
(напр.,м/с)
 
Видим.   Явления Облачность Т
(С)
Тd
(С)
f
(%)
Тe
(С)
Тes
(С)
Комфортность P
(гПа)
Po
(гПа)
Тmin
(С)
Tmax
(С)
R
(мм)
R24
(мм)
S
(см)
01 17.03 СВ 4 н/о н/о +27.6 +9.4 32 +28 +28 жарко 1017.2 1006.1 +19.3
02 17.03 СВ 5 н/о н/о +29.1 +9.3 29 +29 +29 жарко 1016.1 1005.1
04 17.03 В 4 н/о н/о +30.2 +8.6 26 +30 +30 жарко 1014.7 1003.7
05 17.03 ЮВ 3 н/о н/о +30.1 +7.9 25 +29 +29 жарко 1014.1 1003.1
07 17.03 Ю 3 н/о н/о +30.4 +8.7 26 +30 +30 жарко 1013.5 1002.5
08 17.03 Ю 5 н/о н/о +29.8 +7.7 25 +29 +29 жарко 1013.7 1002.7
10 17.03 ЮЗ 2 н/о н/о +24.0 +6.3 32 +24 +24 комфорт 1014.3 1003.3
11 17.03 З 3 н/о н/о +22.7 +7.3 37 +24 +24 комфорт 1014.5 1003.5
13 17.03 ЮЗ 2 н/о н/о +19.6 +7.0 44 +21 +21 комфорт 1014.5 1003.5 +31.6
14 17.03 З 2 н/о н/о +19.1 +6.6 44 +20 +20 1014.3 1003.3
16 17.03 Ю 4 н/о н/о +20.6 +6.5 40 +22 +22 комфорт 1014.0 1003.0
17 17.03 Ю 4 н/о н/о +19.3 +7.1 45 +20 +20 1013.8 1002.8
19 17.03 Ю 3 н/о н/о +17.7 +7.4 51 +18 +18 1014.0 1003.0
20 17.03 Ю 2 н/о н/о +17.2 +8.4 56 +18 +18 1014.6 1003.6
22 17.03 Ю 4 н/о н/о +20.1 +11.6 58 +22 +22 комфорт 1015.2 1004.2
23 17.03 Ю 3 н/о н/о +22.9 +11.0 47 +25 +25 комфорт 1015.4 1004.4
01 18.03 Ю 4 н/о н/о +27.3 +10.1 34 +28 +28 жарко 1014.8 1003.8 +16.4
02 18.03 ЮЗ 6 н/о н/о +30.3 +6.2 22 +29 +29 жарко 1013.9 1002.9
04 18.03 ЮЗ 7 н/о н/о +31.3 +4.2 18 +29 +29 жарко 1012.2 1001.2
05 18.03 ЮЗ 8 н/о н/о +32.3 +2.4 15 +29 +29 жарко 1011.5 1000.5
07 18.03 ЮЗ 7 н/о н/о +31.6 +0.9 14 +29 +29 жарко 1010.9 999.9
08 18.03 Ю 6 н/о н/о +30.2 +0.7 15 +27 +27 жарко 1011.2 1000.2
10 18.03 ЮЗ 3 н/о н/о +23.2 +0.9 23 +22 +22 комфорт 1012.2 1001.2
11 18.03 ЮЗ 2 н/о н/о +22.1 +1.2 25 +22 +22 комфорт 1012.6 1001.6
13 18.03 ЮВ 4 н/о н/о +22.9 +9.3 42 +24 +24 комфорт 1012.7 1001.7 +33.0
14 18.03 ЮВ 4 н/о н/о +21.8 +10.0 47 +23 +23 комфорт 1012.9 1001.9
16 18.03 ЮВ 3 н/о н/о +19.8 +11.6 59 +22 +22 комфорт 1012.6 1001.6
17 18.03 ЮВ 3 н/о н/о +19.2 +11.7 62 +20 +20 1012.6 1001.6
19 18.03 ЮВ 3 н/о н/о +17.7 +11.5 67 +18 +18 1012.7 1001.7
20 18.03 Ю 2 н/о н/о +16.6 +10.9 69 +17 +17 1013.3 1002.3
22 18.03 В 4 н/о н/о +22.1 +13.7 59 +25 +25 комфорт 1014.2 1003.2
23 18.03 В 4 н/о н/о +24.3 +13.5 51 +27 +27 жарко 1014.3 1003.3
01 19.03 С 2 н/о н/о +28.2 +12.9 39 +30 +30 жарко 1014.3 1003.3 +16.6
02 19.03 ЮЗ 3 н/о н/о +29.3 +12.3 35 +30 +30 жарко 1013.5 1002.5
04 19.03 Ю 3 н/о н/о +31.6 +7.3 22 +30 +30 жарко 1011.6 1000.6
05 19.03 Ю 5 н/о н/о +32.1 +7.0 21 +30 +30 жарко 1011.0 1000.0
07 19.03 ЮЗ 4 н/о н/о +31.6 +5.2 19 +30 +30 жарко 1010.4 999.4
08 19.03 ЮЗ 5 н/о н/о +30.4 +5.6 21 +29 +29 жарко 1010.7 999.7
10 19.03 ЮЗ 4 н/о н/о +24.5 +5.8 30 +24 +24 комфорт 1011.8 1000.8
11 19.03 ЮЗ 4 н/о н/о +22.7 +5.2 32 +23 +23 комфорт 1012.3 1001.3
13 19.03 Ю 4 н/о н/о +22.2 +11.0 49 +24 +24 комфорт 1012.7 1001.7 +32.9
14 19.03 Ю 4 н/о н/о +21.3 +14.2 64 +24 +24 комфорт 1012.3 1001.3
16 19.03 Ю 3 н/о н/о +19.1 +14.8 76 +21 +21 комфорт 1011.9 1000.9
17 19.03 ЮЗ 3 н/о н/о +17.2 +13.3 78 +17 +17 1011.7 1000.7
19 19.03 ЮЗ 3 н/о н/о +15.8 +13.5 86 +15 +15 1012.1 1001.1
20 19.03 Ю 2 н/о н/о +15.8 +14.0 89 +16 +16 1012.5 1001.5
22 19.03 Ю 4 н/о н/о +20.3 +15.5 74 +23 +23 комфорт 1013.7 1002.7
23 19.03 В 2 н/о н/о +23.3 +15.4 61 +28 +28 душно 1014.2 1003.2
01 20.03 З 3 н/о н/о +28.0 +13.5 41 +30 +30 жарко 1014.1 1003.1 +15.3
02 20.03 ЮЗ 4 н/о н/о +30.3 +11.8 32 +31 +31 жарко 1013.4 1002.4
04 20.03 ЮЗ 3 н/о н/о +32.0 +7.6 22 +31 +31 жарко 1011.6 1000.6
05 20.03 Ю 3 н/о н/о +32.2 +9.1 24 +31 +31 жарко 1011.1 1000.1
07 20.03 ЮЗ 5 н/о н/о +32.0 +8.3 23 +31 +31 жарко 1010.7 999.7
08 20.03 ЮЗ 5 н/о н/о +30.9 +7.4 23 +30 +30 жарко 1010.8 999.8
10 20.03 ЮЗ 4 н/о н/о +25.0 +7.2 32 +25 +25 комфорт 1011.8 1000.8
11 20.03 ЮЗ 3 н/о н/о +23.7 +7.3 35 +24 +24 комфорт 1012.3 1001.3
13 20.03 Ю 5 н/о н/о +23.7 +10.7 44 +25 +25 комфорт 1012.6 1001.6 +33.4
14 20.03 Ю 4 н/о н/о +22.0 +13.1 57 +25 +25 комфорт 1012.7 1001.7
16 20.03 Ю 3 н/о н/о +19.1 +13.3 69 +20 +20 1012.4 1001.4
17 20.03 ЮЗ 2 н/о н/о +17.5 +12.2 71 +18 +18 1012.2 1001.2
19 20.03 Ю 2 н/о н/о +16.8 +12.3 75 +17 +17 1012.5 1001.5
20 20.03 Ю 2 н/о н/о +17.1 +14.4 84 +17 +17 1012.8 1001.8
22 20.03 ЮВ 3 н/о н/о +21.5 +15.3 68 +25 +25 комфорт 1013.8 1002.8
23 20.03 В 3 н/о н/о +24.3 +14.7 55 +27 +27 жарко 1014.3 1003.3
01 21.03 З 2 н/о н/о +30.2 +11.7 32 +31 +31 жарко 1014.2 1003.2 +16.6
02 21.03 Ю 3 н/о н/о +31.4 +10.2 27 +31 +31 жарко 1013.5 1002.5
04 21.03 З 3 н/о н/о +33.1 +8.5 22 +32 +32 жарко 1011.9 1000.9
05 21.03 СЗ 3 н/о н/о +33.8 +7.0 19 +32 +32 жарко 1011.4 1000.4
07 21.03 ЮЗ 4 н/о н/о +33.3 +7.3 20 +32 +32 жарко 1010.9 999.9
08 21.03 ЮЗ 3 н/о н/о +30.5 +6.4 22 +29 +29 жарко 1011.1 1000.1
10 21.03 ЮЗ 3 н/о н/о +27.6 +6.9 27 +27 +27 жарко 1012.1 1001.1
11 21.03 ЮЗ 3 н/о н/о +26.4 +7.9 31 +26 +26 жарко 1012.6 1001.6
13 21.03 Ю 4 н/о н/о +25.1 +9.0 36 +26 +26 жарко 1012.6 1001.6 +34.5
14 21.03 Ю 3 н/о н/о +23.8 +10.8 44 +25 +25 комфорт 1012.3 1001.3
16 21.03 Ю 2 н/о н/о +22.5 +13.3 56 +25 +25 комфорт 1011.9 1000.9
17 21.03 ЮВ 4 н/о н/о +20.9 +13.4 62 +24 +24 комфорт 1011.6 1000.6
22 21.03 СЗ 1 н/о н/о +21.9 +14.5 63 +25 +25 комфорт 1013.6 1002.6
23 21.03 С 2 н/о н/о +26.9 +12.9 42 +29 +29 жарко 1013.3 1002.3
01 22.03 В 3 н/о н/о +29.4 +10.0 30 +29 +29 жарко 1013.6 1002.6 +19.9
02 22.03 В 6 н/о н/о +29.3 +9.4 29 +29 +29 жарко 1012.9 1001.9
04 22.03 СВ 8 н/о н/о +31.3 +11.7 30 +32 +32 жарко 1011.9 1000.9
05 22.03 СВ 5 н/о н/о +30.3 +11.8 32 +31 +31 жарко 1011.3 1000.3
07 22.03 СВ 5 н/о н/о +30.9 +10.8 29 +31 +31 жарко 1010.3 999.3
08 22.03 СВ 6 н/о н/о +29.4 +11.0 32 +30 +30 жарко 1010.6 999.6
10 22.03 В 5 н/о н/о +26.3 +11.6 40 +28 +28 жарко 1011.5 1000.5
11 22.03 В 5 н/о н/о +24.9 +11.5 43 +26 +26 жарко 1011.8 1000.8
13 22.03 В 7 н/о н/о +23.7 +12.4 49 +26 +26 жарко 1011.2 1000.2 +32.3
14 22.03 В 7 н/о н/о +23.2 +13.7 55 +27 +27 душно 1010.8 999.8
16 22.03 СВ 5 н/о н/о +22.1 +13.7 59 +25 +25 комфорт 1009.9 998.9
17 22.03 В 4 н/о н/о +21.1 +13.5 62 +24 +24 комфорт 1009.7 998.7
19 22.03 В 5 н/о н/о +20.6 +13.1 62 +23 +23 комфорт 1008.9 997.9
20 22.03 В 5 н/о н/о +20.7 +12.9 61 +23 +23 комфорт 1009.3 998.3
22 22.03 В 6 н/о н/о +20.6 +12.8 61 +23 +23 комфорт 1009.6 998.6
23 22.03 В 6 н/о н/о +21.4 +12.8 58 +24 +24 комфорт 1009.6 998.6
01 23.03 СВ 6 н/о н/о +25.2 +12.1 44 +27 +27 жарко 1008.7 997.7 +20.5
02 23.03 СВ 5 н/о н/о +26.9 +11.4 38 +28 +28 жарко 1008.2 997.2
04 23.03 СЗ 4 н/о н/о +31.7 +9.8 26 +31 +31 жарко 1006.7 995.8
05 23.03 СЗ 7 н/о н/о +33.6 +8.3 21 +32 +32 жарко 1006.2 995.3
07 23.03 З 9 н/о н/о +32.9 +5.5 18 +31 +31 жарко 1006.6 995.7
08 23.03 З 7 н/о н/о +30.8 +3.0 17 +28 +28 жарко 1007.5 996.5
10 23.03 ЮЗ 4 н/о н/о +26.9 +5.8 26 +26 +26 жарко 1009.4 998.4
11 23.03 З 3 н/о н/о +25.9 +7.0 30 +26 +26 жарко 1009.9 998.9
13 23.03 З 4 н/о н/о +25.0 +8.5 35 +25 +25 комфорт 1010.4 999.4 +35.1
14 23.03 З 5 н/о н/о +24.6 +10.1 40 +26 +26 жарко 1011.3 1000.3
16 23.03 З 3 н/о туман местами н/о +20.1 +15.3 74 +23 +23 комфорт 1011.4 1000.4
17 23.03 СЗ 4 н/о н/о +19.5 +15.2 76 +21 +21 комфорт 1011.4 1000.4
19 23.03 С 4 н/о н/о +18.7 +15.4 81 +20 +20 1010.8 999.8
20 23.03 С 3 н/о н/о +18.5 +15.6 83 +19 +19 1011.7 1000.7
22 23.03 С 3 н/о н/о +20.1 +16.1 78 +23 +23 комфорт 1012.4 1001.4
23 23.03 С 4 н/о н/о +22.1 +15.7 67 +26 +26 душно 1011.9 1000.9

 

Местоположение метеостанции Дениликин (Новый Южный Уэльс, Австралия): широта -35.57 долгота 144.95 высота над уровнем моря 95 м.

В архиве по умолчанию представлена погода в Дениликине за последнюю неделю. Архивные данные за месяц целиком и за предыдущие месяцы, начиная с января 2011 года, Вы можете получить, выбрав интересующий диапазон дат из раскрывающегося списка и нажав кнопку "Ввод!".


*Определитесь, кто Вы:
робот инопланетянин человек

Внимание! Время в таблицах - всемирное. Для получения местного времени необходимо прибавить поправку, которая равна 10 ч.

Смотрите также архив погоды в соседних городах и на ближайших метеорологических станциях:

Погода в Кайабраме (Виктория, Австралия) (85 км)
Погода в Татуре (Виктория, Австралия) (100 км)
Погода в Шеппартоне (Виктория, Австралия) (104 км)
Погода в Ярравонге (Виктория, Австралия) (110 км)
Погода в Хее (Новый Южный Уэльс, Австралия) (116 км)
Погода в Суон-Хилле (Виктория, Австралия) (130 км)
Погода в Бендиго (Виктория, Австралия) (141 км)
Погода в Мангалоре (Виктория, Австралия) (147 км)
Погода в Рутерглене (Виктория, Австралия) (152 км)
Погода в Вангаратте (Виктория, Австралия) (154 км)

Пояснения к столбцам:

Ветер - указаны скорость ветра в м/с - средняя за 10 мин, порывы в срок и между сроками (в фигурных скобках) и направление, откуда дует ветер: С - северный, СВ - северо-восточный, В - восточный, ЮВ - юго-восточный, Ю - южный, ЮЗ - юго-западный, З - западный, СЗ - северо-западный.
Видимость - горизонтальная дальность видимости в метрах или километрах. При видимости от 1 до 10 км при отсутствии осадков обычно наблюдается дымка, при ухудшении видимости до 1 км и менее - туман. В сухую погоду видимость может ухудшаться дымом, пылью или мглою.
Явления - указаны атмосферные явления, наблюдавшиеся в срок или в последний час перед сроком; фигурными скобками обозначены явления, наблюдавшиеся между сроками (за 1-3 часа до срока); квадратными скобками обозначены град или гололедные отложения с указанием их диаметра в мм.
Облачность - указаны через наклонную черту общая и нижняя облачность в баллах и высота нижней границы облаков в метрах; квадратными скобками обозначены формы облаков: Ci - перистые, Cs - перисто-слоистые, Cc - перисто-кучевые, Ac - высококучевые, As - высокослоистые, Sc - слоисто-кучевые, Ns - слоисто-дождевые, Cu - кучевые, Cb - кучево-дождевые. Подробнее классификацию облаков см. в Атласе облаков (PDF).
T - Температура воздуха - температура, измеренная на высоте 2 м над землей.
Td - Температура точки росы - температура, при понижении до которой содержащийся в воздухе водяной пар достигнет насыщения.
f - Относительная влажность воздуха - влажноcть воздуха, измеренная на высоте 2 м над землей.
Te - Эффективная температура - температура, которую ощущает одетый по сезону человек в тени. Характеристика душности погоды. При расчете учитывается влияние влажности воздуха и скорости ветра на теплоощущения человека.
Tes - Эффективная температура на солнце - температура, которую ощущает человек, с поправкой на солнечный нагрев. Характеристика знойности погоды. Зависит от высоты солнца над горизонтом, облачности и скорости ветра. Ночью, в пасмурную погоду, а также при ветре 12 м/с и более поправка равна нулю.
P - Атмосферное давление - приведенное к уровню моря атмосферное давление.
Po - Атмосферное давление - измеренное на уровне метеостанции атмосферное давление.
Tmin - Минимальная температура - минимум температуры воздуха на высоте 2 м над землей.
Tmax - Максимальная температура - максимум температуры воздуха на высоте 2 м над землей.
R - Количество осадков - Количество выпавших осадков за период времени, мм. При наведении курсора мыши на число - период времени, за который выпало указанное количество осадков.
R24 - Количество осадков - Количество выпавших осадков за 24 часа, мм.
S - Снежный покров - Высота снежного покрова, см. При наведении курсора мыши на число - состояние снежного покрова и степень покрытия местности в баллах.